Content
SEND FEEDBACK

Daily
Averages
Monthly
Summary
United States of America

NEWAYGO, MICHIGAN


Home > North America > United States > Michigan
Elevation: 720 feet     Latitude: 43 27N     Longitude: 085 40W

WEATHER
 
SELECT A DAY
Number of Records: 157,902;   Date Range: 6/5/08 - 12/21/14
 
SHARE

PRINT THIS DATA

[ ← Previous Day ]
WEATHER ALMANAC - JANUARY 31, 2013
[ Next Day → ]
[ °C ]   °F
Weather ElementAverageHighLow
Temperature17.7 °F21.9 °F (12:35 am)14.5 °F (10:35 pm)
Dewpoint13.9 °F19.9 °F (12:35 am)10.2 °F (1:55 pm)
Humidity85 %93 % (2:35 am)71 % (1:55 pm)
Barometer29.65 in29.89 in (11:35 pm)29.38 in (12:35 am)
Wind Speed13.6 mph21.9 mph (1:15 am)
Wind Gust26.5 mph (1:15 am)
Weather ElementAverage
Visibility4 mi
Wind DirectionWSW (263.8 °)

Weather ElementTotal
Precipitation---
Heating Degree Days46.8 (Base 65)
Averaged from 66 records on January 31, 2013
WEATHER CONDITIONS BREAKOUT
WIND DIRECTION BREAKOUT
WEATHER BY HOUR - JANUARY 31, 2013
[ °C ]   °F
Local TimeTemperatureDewpointHumidityBarometerVisibilityWind DirectionWind SpeedGust SpeedPrecipitationEventsConditions
12:35 AM21.9 °F19.9 °F92 %29.38 in2.5 miWest (270°)16.1 mph20.7 mphSnowLight Snow
12:55 AM21.6 °F19.2 °F91 %29.39 in4.0 miWest (270°)15.0 mph20.7 mphSnowLight Snow
1:15 AM21.2 °F19.0 °F91 %29.40 in3.0 miWest (270°)21.9 mph26.5 mphSnowLight Snow
1:35 AM21.0 °F18.1 °F89 %29.41 in5.0 miWest (260°)13.8 mph24.2 mphSnowLight Snow
1:54 AM20.5 °F17.8 °F89 %29.42 in2.5 miWest (260°)16.1 mphSnowLight Snow
2:15 AM20.3 °F18.0 °F91 %29.43 in3.0 miWest (270°)15.0 mph21.9 mphSnowLight Snow
2:35 AM19.9 °F18.1 °F93 %29.45 in1.2 miWest (260°)15.0 mphSnowLight Snow
2:55 AM19.9 °F17.4 °F90 %29.45 in4.0 miWest (260°)17.3 mph23.0 mphSnowLight Snow
3:15 AM19.8 °F16.9 °F89 %29.46 in4.0 miWest (260°)13.8 mph26.5 mphSnowLight Snow
3:35 AM19.8 °F16.7 °F88 %29.47 in5.0 miWest (260°)15.0 mph21.9 mphSnowLight Snow
3:55 AM19.8 °F16.7 °F88 %29.47 in5.0 miWest (260°)17.3 mph23.0 mphSnowLight Snow
4:15 AM19.4 °F15.4 °F85 %29.48 in7.0 miWest (270°)16.1 mph26.5 mphSnowLight Snow
4:34 AM19.2 °F15.4 °F85 %29.49 in4.0 miWest (260°)13.8 mph25.3 mphSnowLight Snow
4:55 AM18.9 °F16.0 °F89 %29.50 in3.0 miWest (260°)18.4 mph23.0 mphSnowLight Snow
5:15 AM18.9 °F14.7 °F84 %29.50 in7.0 miWest (270°)15.0 mph23.0 mphOvercast
5:35 AM18.9 °F14.7 °F84 %29.52 in5.0 miWest (260°)11.5 mph17.3 mphSnowLight Snow
5:54 AM18.9 °F15.4 °F87 %29.52 in4.0 miWest (260°)16.1 mph20.7 mphSnowLight Snow
6:15 AM18.5 °F15.8 °F89 %29.53 in1.8 miWest (270°)18.4 mph24.2 mphSnowLight Snow
6:35 AM18.5 °F16.0 °F90 %29.54 in1.5 miWest (260°)16.1 mph21.9 mphSnowLight Snow
6:55 AM18.3 °F14.7 °F86 %29.54 in4.0 miWest (260°)18.4 mph24.2 mphSnowLight Snow
7:15 AM18.3 °F13.6 °F82 %29.55 in7.0 miWest (270°)17.3 mph21.9 mphOvercast
7:35 AM18.1 °F13.3 °F81 %29.56 in5.0 miWest (270°)16.1 mphSnowLight Snow
7:55 AM18.0 °F13.8 °F84 %29.57 in5.0 miWest (270°)13.8 mphSnowLight Snow
8:15 AM17.6 °F13.5 °F84 %29.58 in5.0 miWest (260°)11.5 mph21.9 mphSnowLight Snow
8:35 AM17.6 °F14.5 °F88 %29.58 in2.5 miWSW (250°)11.5 mphSnowLight Snow
8:55 AM17.6 °F14.4 °F87 %29.59 in2.0 miWest (260°)15.0 mphSnowLight Snow
9:15 AM17.6 °F14.4 °F87 %29.60 in2.5 miWSW (250°)10.4 mphSnowLight Snow
9:35 AM17.8 °F14.5 °F87 %29.62 in1.2 miWest (260°)16.1 mphSnowLight Snow
9:55 AM17.6 °F14.9 °F89 %29.63 in0.2 miWest (270°)9.2 mph17.3 mphSnowSnow
10:35 AM17.6 °F13.5 °F84 %29.65 in2.5 miWest (270°)11.5 mphSnowLight Snow
10:55 AM18.1 °F14.7 °F86 %29.66 in1.0 miWest (270°)9.2 mphSnowLight Snow
11:15 AM18.1 °F13.3 °F81 %29.67 in4.0 miWest (280°)13.8 mph20.7 mphSnowLight Snow
11:35 AM18.1 °F13.3 °F81 %29.67 in4.0 miWest (260°)12.7 mph19.6 mphSnowLight Snow
12:00 PM18.0 °F12.7 °F80 %29.68 in2.0 miWest (260°)13.8 mph25.3 mphSnowLight Snow
12:15 PM18.3 °F13.5 °F81 %29.68 in2.5 miWest (260°)15.0 mphSnowLight Snow
12:35 PM18.5 °F13.5 °F81 %29.69 in2.5 miWest (260°)11.5 mphSnowLight Snow
1:15 PM18.9 °F12.2 °F75 %29.69 in5.0 miWest (260°)15.0 mphSnowLight Snow
1:35 PM18.1 °F12.4 °F78 %29.70 in4.0 miWest (270°)15.0 mph24.2 mphHaze
1:55 PM18.1 °F10.2 °F71 %29.70 in10.0 miWest (280°)15.0 mph21.9 mphOvercast
2:15 PM18.5 °F10.9 °F72 %29.71 in10.0 miWest (270°)11.5 mph19.6 mphOvercast
2:34 PM18.3 °F12.0 °F76 %29.72 in4.0 miWest (270°)13.8 mph19.6 mphSnowLight Snow
2:55 PM18.3 °F11.1 °F73 %29.73 in7.0 miWSW (250°)13.8 mph19.6 mphSnowLight Snow
3:15 PM18.1 °F10.6 °F72 %29.73 in10.0 miWest (260°)15.0 mphOvercast
3:35 PM17.6 °F11.8 °F78 %29.74 in4.0 miWest (260°)13.8 mphSnowLight Snow
3:55 PM17.2 °F12.9 °F83 %29.75 in1.5 miWSW (250°)13.8 mphSnowLight Snow
4:15 PM17.1 °F12.2 °F81 %29.75 in5.0 miWest (260°)13.8 mph18.4 mphHaze
4:35 PM16.7 °F13.5 °F87 %29.76 in0.5 miWest (260°)12.7 mphSnowLight Snow
4:55 PM16.7 °F12.6 °F84 %29.76 in2.5 miWest (270°)13.8 mph20.7 mphSnowLight Snow
5:15 PM16.3 °F12.2 °F84 %29.77 in2.5 miWest (260°)13.8 mphSnowLight Snow
5:35 PM16.2 °F12.6 °F86 %29.78 in2.5 miWest (270°)12.7 mph18.4 mphSnowLight Snow
5:55 PM15.8 °F11.7 °F84 %29.78 in4.0 miWest (270°)13.8 mph19.6 mphSnowLight Snow
6:14 PM15.8 °F12.4 °F86 %29.78 in2.5 miWest (270°)9.2 mphSnowLight Snow
6:35 PM15.1 °F11.5 °F86 %29.80 in4.0 miWest (270°)11.5 mphOvercast
6:54 PM14.9 °F11.3 °F86 %29.80 in4.0 miWest (270°)10.4 mphOvercast
7:15 PM14.9 °F11.5 °F86 %29.82 in3.0 miWest (270°)9.2 mphSnowLight Snow
7:35 PM14.9 °F12.0 °F88 %29.82 in2.5 miWest (260°)10.4 mphSnowLight Snow
8:15 PM15.3 °F12.2 °F88 %29.83 in3.0 miWSW (250°)11.5 mphSnowLight Snow
8:35 PM15.3 °F12.6 °F89 %29.84 in1.8 miWest (260°)12.7 mph17.3 mphSnowLight Snow
9:15 PM15.1 °F11.7 °F86 %29.85 in5.0 miWSW (250°)10.4 mphSnowLight Snow
9:34 PM14.9 °F11.7 °F87 %29.85 in7.0 miWest (260°)11.5 mphSnowLight Snow
9:55 PM14.9 °F11.8 °F88 %29.85 in5.0 miWest (270°)11.5 mphSnowLight Snow
10:15 PM14.9 °F11.8 °F88 %29.87 in7.0 miWest (260°)8.1 mphSnowLight Snow
10:35 PM14.5 °F11.7 °F88 %29.87 in5.0 miWest (260°)9.2 mphSnowLight Snow
10:55 PM14.5 °F11.3 °F87 %29.87 in7.0 miWest (260°)10.4 mphSnowLight Snow
11:14 PM15.4 °F12.2 °F87 %29.88 in10.0 miWest (270°)12.7 mphMostly Cloudy
11:35 PM15.6 °F13.1 °F90 %29.89 in1.0 miWest (280°)10.4 mphSnowLight Snow
Hourly data recorded from KFFX, located miles away from Newaygo, Michigan







STORIES FROM OUR PARTNERS